Regional Weather Roundup
Issued by NWS

Home | Current Version | Previous Version | Graphics & Text | Print | Product List | Glossary On
Versions: 1 2 3 4 5 6 7 8 9 10 11 12 13 14 15 16 17 18 19 20 21 22 23 24 25 26 27 28 29 30 31 32 33 34 35 36 37 38 39 40 41 42 43 44 45 46 47 48 49 50
000
ASUS45 KABQ 201601
RWRNM
NEW MEXICO REGIONAL WEATHER ROUNDUP
NATIONAL WEATHER SERVICE ALBUQUERQUE NM
1000 AM MDT SUN AUG 20 2017

NOTE: "FAIR" MEANS FEW OR NO CLOUDS BELOW 12,000 FEET AGL WITH NO
       SIGNIFICANT WEATHER OR OBSTRUCTIONS TO VISION.

      THIS PRODUCT IS RELEASED AS TWO VERSIONS.  ONE VERSION NEAR
      THE TOP OF THE HOUR CONTAINING PRELIMINARY DATA FROM ALBUQUERQUE
      AND OTHER STATIONS.  A FINAL VERSION WITH ADDITIONAL DATA IS
      ISSUED ABOUT 10 MINUTES AFTER THE HOUR.

NMZ501-503-504-510>518-201700-
NORTHWEST PLATEAU/NORTHCENTRAL MOUNTAINS

CITY           SKY/WX    TMP DP  RH WIND       PRES   REMARKS
FARMINGTON     FAIR      76  46  34 E12       30.14S
LOS ALAMOS     FAIR      67  45  43 NE3       30.30R
SANTA FE       FAIR      74  49  41 N5        30.23R
TAOS           FAIR      68  46  45 N3        30.31S
ANGEL FIRE     FAIR      60  47  62 CALM      30.38S

$$
NMZ402-403-502-505>509-201700-
WESTCENTRAL MOUNTAINS/SOUTHWEST MOUNTAINS

CITY           SKY/WX    TMP DP  RH WIND       PRES   REMARKS
GALLUP         FAIR      72  44  36 SW9       30.23R
GRANTS         FAIR      74  41  30 N3        30.24S
SILVER CITY    RAIN      64  60  84 NW7       30.20S

$$
NMZ407-409-411-412-201700-
SOUTHERN DESERTS

CITY           SKY/WX    TMP DP  RH WIND       PRES   REMARKS
DEMING         LGT RAIN  63  61  93 N3        30.17R FOG
LAS CRUCES     RAIN      63  62  97 NW7       30.16F
HOLLOMAN AFB   LGT RAIN  65  65 100 NE6       30.18S FOG
ALAMOGORDO     LGT RAIN  64  64 100 N9        30.18R
T OR C         CLOUDY    71  56  58 S8        30.18R

$$
NMZ519>523-201700-
CENTRAL VALLEYS/CENTRAL HIGHLANDS

CITY           SKY/WX    TMP DP  RH WIND       PRES   REMARKS
ALBUQUERQUE    CLOUDY    73  53  49 S8        30.18S
DOUBLE EAGLE   CLOUDY    72  54  53 S9        30.21S
CLINES CORNERS FAIR      68  51  54 SW10      30.29R
BELEN          NOT AVBL
SOCORRO        NOT AVBL

$$
NMZ524>526-539-540-201700-
SOUTHCENTRAL MOUNTAINS

CITY           SKY/WX    TMP DP  RH WIND       PRES   REMARKS
RUIDOSO        NOT AVBL

$$
NMZ527>531-201700-
NORTHEAST HIGHLANDS/NORTHEAST PLAINS

CITY           SKY/WX    TMP DP  RH WIND       PRES   REMARKS
LAS VEGAS      FAIR      68  50  52 SW6       30.25S
RATON          FAIR      69  50  50 CALM      30.20F
CLAYTON        FAIR      76  57  51 SW16      30.11R

$$
NMZ532>537-201700-
EASTCENTRAL PLAINS

CITY           SKY/WX    TMP DP  RH WIND       PRES   REMARKS
SANTA ROSA     FAIR      76  56  48 S7        30.13F
TUCUMCARI      FAIR      85  59  41 SW16      30.06F
CANNON AFB     FAIR      78  69  74 S8        30.14S
CLOVIS AIRPORT FAIR      76  64  66 S12       30.14R

$$
NMZ028-029-538-201700-
SOUTHEAST PLAINS

CITY           SKY/WX    TMP DP  RH WIND       PRES   REMARKS
ROSWELL        FAIR      83  61  47 S12G18    30.09S
ARTESIA        FAIR      81  64  57 CALM      30.10S
CARLSBAD       FAIR      80  68  66 S6        30.07S
HOBBS          SUNNY     82  63  51 S13       30.10S


$$




USA.gov is the U.S. government's official web portal to all federal, state and local government web resources and services.